Location: Laura�t
(43.9341°N, 0.2497°E)
Time: 22:36:24
(UTC+00:00)

FALCON 9 DEB - Pass Details

Date: 03 March 2021
Orbit: 424 x 435 km, 53.0° (Epoch: 17 April)

Event Time Altitude Azimuth Distance (km) Brightness Sun altitude
Rises 19:53:38 0° 303° (WNW) 2,402 8.1 -22.9°
Reaches altitude 10° 19:55:46 10° 301° (WNW) 1,529 6.9 -23.3°
Enters shadow 19:58:20 46° 283° (WNW) 587 4.1 -23.7°
